Location: Fort Worth, Tx
(32.7431°N, 97.3695°W)
Time: 04:22:24
(UTC-05:00)

Courier 1B Rocket - All Passes

Search period start: 28 January 2023 00:00
Search period end: 07 February 2023 00:00
Orbit: 920 x 1202 km, 28.3° (Epoch: 27 January)

Date Brightness Start Highest point End Pass type
(mag) Time Alt. Az. Time Alt. Az. Time Alt. Az.
28 Jan - 00:50:23 10° W 00:56:48 42° SSW 01:03:38 10° SE night (unlit)
28 Jan - 02:45:04 10° WSW 02:49:54 19° SSW 02:54:54 10° SSE night (unlit)
28 Jan - 18:12:36 10° SSW 18:16:34 18° SSE 18:20:36 10° ESE daylight
28 Jan - 20:03:27 10° SW 20:09:18 42° SSE 20:15:25 10° E visible
28 Jan - 21:56:07 10° WSW 22:02:26 60° S 22:09:10 10° E visible
28 Jan - 23:49:18 10° W 23:55:42 49° SSW 00:02:34 10° ESE night (unlit)
29 Jan - 01:43:17 10° WSW 01:48:51 25° SSW 01:54:42 10° SSE night (unlit)
29 Jan - 17:13:48 10° S 17:15:46 11° SSE 17:17:44 10° SE daylight
29 Jan - 19:02:56 10° SW 19:08:25 33° SSE 19:14:03 10° E daylight
29 Jan - 20:55:15 10° WSW 21:01:24 56° S 21:07:54 10° E visible
29 Jan - 22:48:19 10° W 22:54:39 55° S 23:01:25 10° ESE visible
30 Jan - 00:41:54 10° W 00:47:48 32° SSW 00:54:06 10° SE night (unlit)
30 Jan - 02:38:10 10° SW 02:40:48 12° SSW 02:43:28 10° S night (unlit)
30 Jan - 18:02:37 10° SSW 18:07:35 25° SSE 18:12:34 10° ESE daylight
30 Jan - 19:54:26 10° WSW 20:00:26 50° S 20:06:39 10° E visible
30 Jan - 21:47:22 10° W 21:53:36 58° S 22:00:13 10° ESE visible
30 Jan - 23:40:43 10° W 23:46:47 40° SSW 23:53:16 10° SE visible
31 Jan - 01:35:26 10° WSW 01:39:48 18° SSW 01:44:20 10° SSE night (unlit)
31 Jan - 17:02:40 10° SSW 17:06:45 18° SSE 17:10:48 10° ESE daylight
31 Jan - 18:53:42 10° SW 18:59:31 42° SSE 19:05:25 10° E daylight
31 Jan - 20:46:26 10° WSW 20:52:35 59° S 20:59:01 10° E visible
31 Jan - 22:39:39 10° W 22:45:46 47° SSW 22:52:17 10° ESE visible
01 Feb - 00:33:39 10° WSW 00:38:48 24° SSW 00:44:13 10° SSE night (unlit)
01 Feb - 16:03:34 10° S 16:05:55 12° SSE 16:08:15 10° SE daylight
01 Feb - 17:53:06 10° SW 17:58:38 33° SSE 18:04:09 10° E daylight
01 Feb - 19:45:32 10° WSW 19:51:37 56° S 19:57:50 10° E visible
01 Feb - 21:38:39 10° W 21:44:46 53° S 21:51:12 10° ESE visible
01 Feb - 23:32:16 10° W 23:37:50 30° SSW 23:43:43 10° SE visible
02 Feb - 01:29:09 10° SW 01:30:44 11° SSW 01:32:21 10° SSW night (unlit)
02 Feb - 16:52:40 10° SSW 16:57:46 26° SSE 17:02:47 10° ESE daylight
02 Feb - 18:44:39 10° WSW 18:50:39 50° S 18:56:42 10° E daylight
02 Feb - 20:37:40 10° W 20:43:47 57° S 20:50:06 10° ESE visible
02 Feb - 22:31:04 10° W 22:36:52 38° SSW 22:42:59 10° SE visible
03 Feb - 00:25:57 10° WSW 00:29:47 16° SSW 00:33:45 10° S night (unlit)
03 Feb - 15:52:34 10° SSW 15:56:55 19° SSE 16:01:09 10° ESE daylight
03 Feb - 17:43:50 10° SW 17:49:44 42° SSE 17:55:34 10° E daylight
03 Feb - 19:36:42 10° WSW 19:42:49 58° S 19:49:01 10° ESE visible
03 Feb - 21:29:59 10° W 21:35:55 45° SSW 21:42:06 10° ESE visible
03 Feb - 23:24:04 10° WSW 23:28:51 22° SSW 23:33:50 10° SSE visible
04 Feb - 14:53:07 10° S 14:56:02 13° SSE 14:58:55 10° SE daylight
04 Feb - 16:43:07 10° SW 16:48:50 34° SSE 16:54:25 10° E daylight
04 Feb - 18:35:43 10° WSW 18:41:51 56° S 18:47:57 10° E daylight
04 Feb - 20:28:57 10° W 20:34:58 52° S 20:41:08 10° ESE visible
04 Feb - 22:22:38 10° WSW 22:27:57 29° SSW 22:33:28 10° SE visible
05 Feb - 15:42:33 10° SSW 15:47:56 27° SSE 15:53:08 10° ESE daylight
05 Feb - 17:34:44 10° WSW 17:40:53 51° S 17:46:54 10° E daylight
05 Feb - 19:27:54 10° W 19:34:01 57° S 19:40:09 10° ESE visible
05 Feb - 21:21:24 10° W 21:27:02 36° SSW 21:32:51 10° SE visible
05 Feb - 23:16:31 10° WSW 23:19:51 15° SSW 23:23:16 10° S visible
06 Feb - 14:42:17 10° SSW 14:47:02 20° SSE 14:51:36 10° ESE daylight
06 Feb - 16:33:48 10° SW 16:39:57 43° SSE 16:45:51 10° E daylight
06 Feb - 18:26:51 10° WSW 18:33:03 58° S 18:39:09 10° ESE daylight
06 Feb - 20:20:15 10° W 20:26:08 44° SSW 20:32:05 10° ESE visible
06 Feb - 22:14:30 10° WSW 22:18:58 20° SSW 22:23:34 10° SSE visible
